Simultaneous Nadir Overpasses (SNOs) Predictions

Prediction of SNOs between GOES-17 and NOAA-20 Satellite Orbit:

Table of predicted SNOs for the next 14.0 days since TLE Epoch: 10/31/2025
Index Date Time (GOES-17) GOES-17 Lat,Lon NOAA-20 Lat,Lon Distance(km) Time Diff (sec)
1 11/01/2025 07:07:45 -0.18, -89.49 -0.89, -86.18 376.30 80
2 11/02/2025 19:32:25 0.14, -89.51 -0.32, -91.49 225.80 80
3 11/03/2025 19:11:03 0.16, -89.52 0.74, -86.97 290.03 80
4 11/05/2025 07:35:33 -0.12, -89.51 0.51, -92.24 311.40 80
5 11/06/2025 07:14:12 -0.14, -89.51 -0.56, -87.73 203.77 80
6 11/07/2025 19:38:50 0.10, -89.53 -0.71, -93.02 399.20 80
7 11/08/2025 19:17:29 0.12, -89.53 0.35, -88.51 116.48 80
8 11/10/2025 07:41:59 -0.08, -89.53 0.88, -93.78 483.88 80
9 11/11/2025 07:20:38 -0.11, -89.54 -0.19, -89.27 31.63 80
10 11/13/2025 19:26:34 0.09, -89.57 0.00, -90.05 54.53 80
